Location: Grust
(42.8833°N, 0.0333°W)
Time: 19:21:22
(UTC+00:00)

BREEZE-M R/B - Pass Details

Date: 25 October 2020
Orbit: 310 x 4523 km, 49.7° (Epoch: 22 November)

Event Time Altitude Azimuth Distance (km) Brightness Sun altitude
Rises 17:58:19 0° 285° (WNW) 2,381 7.5 -11.0°
Reaches altitude 10° 18:00:01 10° 295° (WNW) 1,715 6.3 -11.3°
Maximum altitude 18:03:31 38° 6° (N) 1,092 4.2 -11.9°
Enters shadow 18:08:28 15° 68° (ENE) 2,625 5.6 -12.9°
